McAlester, OK

5:28 AM CDT on October 19, 2019 (GMT -0500)
McAlester Regional

Weather History for KMLC - September, 2019

Change the Weather History Date:

Tuesday, September 17, 2019

  Actual Average Record
Temperature  
Mean Temperature 84 °F -  
Max Temperature 96 °F 82 °F 97 °F (2004)
Min Temperature 73 °F 62 °F 44 °F (1981)
Cooling Degree Days 19    
Growing Degree Days 34 (Base 50)    
Moisture  
Dew Point 65 °F    
Average Humidity 58    
Maximum Humidity 76    
Minimum Humidity 34    
Precipitation  
Precipitation 0.00 in - - ()
Sea Level Pressure  
Sea Level Pressure 29.96 in    
Wind  
Wind Speed 5 mph (SE)    
Max Wind Speed 8 mph    
Max Gust Speed -    
Visibility 10 miles    
Events      
Averages and records for this station are not official NWS values.
T = Trace of Precipitation, MM = Missing Value Source: NWS Daily Summary

Daily Weather History Graph

Daily Weather History Graph

Search for Another Location

Airport or City:

Astronomy

Sep. 17, 2019 Rise Set
Actual Time 7:07 AM CDT 7:27 PM CDT
Civil Twilight 6:42 AM CDT 7:52 PM CDT
Nautical Twilight 6:12 AM CDT 8:22 PM CDT
Astronomical Twilight 5:42 AM CDT 8:52 PM CDT
Moon 9:38 PM CDT (9/17) 10:06 AM CDT (9/17)
Length of Visible Light 13h 10m
Length of Day
12h 19m
Waning Gibbous, 89% of the Moon is Illuminated
Sep 17
Waning Gibbous
Sep 21
Last Quarter
Sep 28
New
Oct 5
First Quarter
Oct 13
Full

Hourly Weather History & Observations

Time (CDT) Temp. Heat Index Dew Point Humidity Pressure Visibility Wind Dir Wind Speed Gust Speed Precip Events Conditions
12:53 AM 73.0 °F - 64.9 °F 76% 29.97 in 10.0 mi East 4.6 mph - N/A   Scattered Clouds
2:53 AM 73.0 °F - 64.0 °F 73% 29.98 in 10.0 mi ESE 4.6 mph - N/A   Clear
3:53 AM 73.9 °F - 64.0 °F 71% 29.98 in 10.0 mi ESE 4.6 mph - N/A   Clear
4:53 AM 73.9 °F - 64.0 °F 71% 29.98 in 10.0 mi ESE 4.6 mph - N/A   Clear
5:53 AM 73.0 °F - 64.0 °F 73% 29.99 in 10.0 mi ESE 5.8 mph - N/A   Clear
6:53 AM 73.9 °F - 64.9 °F 73% 30.00 in 10.0 mi East 3.5 mph - N/A   Clear
7:53 AM 75.0 °F - 64.9 °F 71% 30.02 in 10.0 mi East 5.8 mph - N/A   Clear
8:53 AM 79.0 °F - 66.9 °F 66% 30.02 in 10.0 mi Variable 4.6 mph - N/A   Partly Cloudy
9:53 AM 84.0 °F 86.5 °F 66.9 °F 56% 30.03 in 10.0 mi Variable 4.6 mph - N/A   Partly Cloudy
10:53 AM 86.0 °F 88.8 °F 66.9 °F 53% 30.03 in 10.0 mi Variable 4.6 mph - N/A   Clear
11:53 AM 90.0 °F 92.8 °F 66.9 °F 46% 30.01 in 10.0 mi Variable 5.8 mph - N/A   Clear
12:53 PM 91.0 °F 94.3 °F 66.9 °F 45% 29.99 in 10.0 mi North - - N/A   Scattered Clouds
1:53 PM 93.9 °F 96.1 °F 64.9 °F 38% 29.96 in 10.0 mi SE 8.1 mph - N/A   Partly Cloudy
2:53 PM 93.9 °F 96.1 °F 64.9 °F 38% 29.94 in 10.0 mi Variable 6.9 mph - N/A   Scattered Clouds
3:53 PM 95.0 °F 96.0 °F 63.0 °F 34% 29.92 in 10.0 mi SSE 8.1 mph - N/A   Partly Cloudy
4:53 PM 91.9 °F 92.9 °F 63.0 °F 38% 29.91 in 10.0 mi SSE 6.9 mph - N/A   Partly Cloudy
5:53 PM 93.0 °F 94.2 °F 63.0 °F 37% 29.89 in 10.0 mi SE 5.8 mph - N/A   Clear
6:53 PM 91.0 °F 92.6 °F 64.0 °F 41% 29.89 in 10.0 mi SE 3.5 mph - N/A   Clear
7:53 PM 86.0 °F 87.3 °F 64.0 °F 48% 29.90 in 10.0 mi SSE 4.6 mph - N/A   Clear
8:53 PM 78.1 °F - 66.0 °F 66% 29.92 in 10.0 mi SSE 3.5 mph - N/A   Clear
9:53 PM 77.0 °F - 66.0 °F 69% 29.93 in 10.0 mi Calm Calm - N/A   Clear
10:53 PM 75.0 °F - 66.9 °F 76% 29.93 in 10.0 mi Calm Calm - N/A   Clear
11:53 PM 75.9 °F - 66.0 °F 71% 29.93 in 10.0 mi SE 3.5 mph - N/A   Scattered Clouds